RADUGA 15 [-]

Last updated on Tue Jun 27 2023 00:03:02 GMT+0000 (Coordinated Universal Time)

1 15057U 84063A 23176.95623370 -.00000154 00000+0 00000+0 0 9992 2 15057 10.8111 319.7741 0006577 163.5022 219.1165 1.00166687130181

Satellite not in orbit

RADUGA 15 [-]